Starlink 5702

operational
NORAD ID: 55622 Int'l Des: 2023-020 Owner: SPXS Country: US Constellation: starlink
LEOCIRCULAR

Starlink 5702について

説明を読み込み中...

リアルタイム位置

3D地球を読み込み中...

次回通過

高度履歴

Altitude vs Time

uPlot chart will show altitude changes over time

軌道要素

1 55622U 23020BF 25261.25347152 .00000332 00000-0 39677-4 0 9996
2 55622 43.0028 208.3616 0001238 260.7209 99.3494 15.02533192143136
Epoch: Sep 18, 2025 • Age: 12 hours

現在のステータス

高度 570.6 km
速度 7.58 km/s
衛星直下点 -40.54°S, 136.12°W
打ち上げ日 Feb 12, 2023
運用期間 2.5 years
タイプ internet

技術仕様

分類 Payload
質量 305.00 kg
乾燥質量 290.00 kg
総質量 305.00 kg
長さ 0.20 m
直径 2.80 m
スパン 9.00 m
形状 Box + pan
製造者 SPXS
バスタイプ Starlink
フェーズステータス In Orbit
所有者/国 SPXS/US

大規模コンステレーション

Loading constellations...